CW6135 Weather Reports


Display with metric or nautical units.
time (UTC)temp
F
wind
direction
speed
MPH
gust
MPH
rain 1hr
in
rain 24hr
in
rain mn
in
humidity
%
barometer
mb
20260505140505 47 172 4.0 6.0 0.00 0.00 0.00 41 1014.7
20260505125005 47 160 8.0 12.0 0.00 0.00 0.00 40 1014.9
20260505124004 47 160 6.0 10.0 0.00 0.00 0.00 40 1014.8
20260505123505 47 170 5.0 10.0 0.00 0.00 0.00 40 1014.7
20260505123005 46 159 6.0 10.0 0.00 0.00 0.00 41 1014.7
20260505122504 46 168 3.0 7.0 0.00 0.00 0.00 41 1015.0
20260505121505 47 165 5.0 7.0 0.00 0.00 0.00 40 1015.0
20260505121005 47 174 5.0 6.0 0.00 0.00 0.00 40 1015.0
20260505120504 47 180 3.0 7.0 0.00 0.00 0.00 40 1015.0
20260505120005 47 186 6.0 9.0 0.00 0.00 0.00 40 1015.0
20260505115504 47 204 6.0 9.0 0.00 0.00 0.00 39 1015.2
20260505115005 46 177 6.0 9.0 0.00 0.00 0.00 41 1015.2
20260505113005 41 102 2.0 5.0 0.00 0.00 0.00 50 1014.5
20260505112504 40 53 1.0 2.0 0.00 0.00 0.00 52 1014.5
20260505112005 41 53 1.0 3.0 0.00 0.00 0.00 51 1014.5
20260505111504 41 53 1.0 3.0 0.00 0.00 0.00 51 1014.5
20260505111004 41 53 3.0 3.0 0.00 0.00 0.00 50 1014.5
20260505110504 41 71 1.0 6.0 0.00 0.00 0.00 50 1014.5
20260505102004 44 152 3.0 6.0 0.00 0.00 0.00 41 1014.3
20260505101505 44 155 3.0 5.0 0.00 0.00 0.00 42 1014.3
20260505101004 43 190 1.0 3.0 0.00 0.00 0.00 44 1014.3
20260505100505 43 171 2.0 3.0 0.00 0.00 0.00 43 1014.3
20260505100004 43 55 1.0 2.0 0.00 0.00 0.00 43 1014.3
20260505094504 45 54 1.0 3.0 0.00 0.00 0.00 39 1014.3
20260505094005 46 54 0.0 3.0 0.00 0.00 0.00 39 1014.3
20260505093504 47 54 2.0 3.0 0.00 0.00 0.00 37 1014.3
20260505093005 48 64 2.0 3.0 0.00 0.00 0.00 36 1014.5
20260505092004 48 159 3.0 9.0 0.00 0.00 0.00 34 1014.4
20260505091005 49 179 6.0 12.0 0.00 0.00 0.00 33 1014.4
20260505090505 49 180 6.0 14.0 0.00 0.00 0.00 33 1014.2
20260505090004 49 197 6.0 14.0 0.00 0.00 0.00 33 1014.2
20260505085504 49 174 9.0 17.0 0.00 0.00 0.00 32 1014.1
20260505085004 49 179 10.0 17.0 0.00 0.00 0.00 32 1014.1
20260505084504 49 174 12.0 17.0 0.00 0.00 0.00 31 1014.7
20260505084004 49 175 10.0 16.0 0.00 0.00 0.00 32 1014.7
20260505083504 49 183 11.0 16.0 0.00 0.00 0.00 32 1014.7
20260505083005 49 179 10.0 16.0 0.00 0.00 0.00 32 1014.7
20260505082504 49 183 8.0 12.0 0.00 0.00 0.00 32 1014.7
20260505082004 49 178 9.0 10.0 0.00 0.00 0.00 32 1014.6
20260505081004 49 180 6.0 10.0 0.00 0.00 0.00 32 1014.8
20260505080504 50 179 7.0 13.0 0.00 0.00 0.00 31 1014.8
20260505080004 50 176 9.0 13.0 0.00 0.00 0.00 31 1014.8
20260505075504 50 170 9.0 13.0 0.00 0.00 0.00 31 1014.8
20260505075005 50 167 8.0 10.0 0.00 0.00 0.00 31 1014.9
20260505074004 50 189 7.0 12.0 0.00 0.00 0.00 33 1015.0
20260505073004 51 179 6.0 12.0 0.00 0.00 0.00 33 1015.0
20260505072504 51 173 8.0 12.0 0.00 0.01 0.00 32 1015.0
20260505072004 50 168 7.0 12.0 0.00 0.01 0.00 32 1015.0
20260505071504 50 165 6.0 9.0 0.00 0.01 0.00 34 1014.9
20260505071005 50 164 6.0 8.0 0.00 0.01 0.00 34 1014.9
20260505070504 49 168 5.0 7.0 0.00 0.01 0.00 35 1014.9
20260505070004 48 164 4.0 6.0 0.00 0.01 0.00 37 1014.9
20260505065504 47 174 2.0 6.0 0.00 0.01 0.00 38 1014.9
20260505063504 49 197 5.0 9.0 0.00 0.01 0.00 38 1014.4
20260505063004 48 196 5.0 9.0 0.00 0.01 0.00 40 1014.4
20260505062504 46 180 3.0 7.0 0.00 0.01 0.00 42 1014.4
20260505061504 44 87 0.0 3.0 0.00 0.01 0.00 50 1014.4
20260505061004 44 31 1.0 3.0 0.00 0.01 0.00 50 1014.3
20260505060504 45 156 2.0 3.0 0.00 0.01 0.00 47 1014.2
20260505060005 45 42 0.0 3.0 0.00 0.01 0.00 48 1014.6
20260505055505 45 42 1.0 3.0 0.00 0.01 0.01 48 1014.6
20260505055006 45 31 0.0 6.0 0.00 0.01 0.01 47 1014.6
20260505054505 45 30 2.0 6.0 0.00 0.01 0.01 47 1014.4
20260505054005 45 74 3.0 5.0 0.00 0.01 0.01 47 1014.4
20260505053005 45 25 3.0 6.0 0.00 0.01 0.01 48 1014.4
20260505052505 45 55 3.0 6.0 0.00 0.01 0.01 48 1014.1
20260505052005 45 37 5.0 6.0 0.00 0.01 0.01 49 1014.1
20260505051505 45 37 5.0 6.0 0.00 0.01 0.01 49 1014.4
20260505051005 45 40 4.0 6.0 0.00 0.01 0.01 49 1014.4
20260505050505 45 39 5.0 6.0 0.00 0.01 0.01 48 1014.4
20260505041505 45 46 3.0 3.0 0.00 0.01 0.01 48 1014.4
20260505041005 45 45 3.0 3.0 0.00 0.01 0.01 48 1014.4
20260505040505 45 33 1.0 3.0 0.00 0.01 0.01 48 1014.3
20260505040006 45 40 2.0 5.0 0.00 0.01 0.01 47 1014.3
20260505035505 46 48 4.0 6.0 0.00 0.01 0.01 46 1014.3
20260505035006 46 48 5.0 6.0 0.00 0.01 0.01 45 1014.3
20260505034005 46 40 3.0 5.0 0.00 0.01 0.01 45 1014.2
20260505033506 46 34 2.0 5.0 0.00 0.01 0.01 46 1014.2
20260505033005 46 44 4.0 5.0 0.00 0.01 0.01 45 1014.2
20260505032506 47 39 4.0 5.0 0.00 0.01 0.01 45 1013.9
20260505032005 47 42 3.0 6.0 0.00 0.01 0.01 44 1013.9
20260505031506 48 39 5.0 6.0 0.00 0.01 0.01 44 1013.9
20260505031006 48 42 5.0 6.0 0.00 0.01 0.01 43 1013.9
20260505030505 48 42 5.0 6.0 0.00 0.01 0.01 44 1013.8
20260505030005 48 45 4.0 5.0 0.00 0.01 0.01 44 1013.8
20260505025005 49 41 4.0 5.0 0.00 0.01 0.01 43 1013.9
20260505024505 49 182 2.0 3.0 0.00 0.01 0.01 43 1013.9
20260505023505 50 182 3.0 3.0 0.00 0.01 0.01 40 1013.9
20260505023006 52 182 3.0 3.0 0.00 0.01 0.01 39 1013.8
20260505022505 53 182 2.0 2.0 0.00 0.01 0.01 36 1013.8
20260505022006 55 182 0.0 1.0 0.00 0.01 0.01 33 1013.8
20260505021505 56 182 0.0 3.0 0.00 0.01 0.01 31 1013.8
20260505021006 57 182 1.0 3.0 0.00 0.01 0.01 30 1013.6
20260505020506 57 182 2.0 3.0 0.00 0.01 0.01 27 1013.6
20260505020004 57 192 3.0 3.0 0.00 0.01 0.01 27 1013.7
20260505015005 58 192 3.0 3.0 0.00 0.01 0.01 27 1013.7
20260505014505 58 200 3.0 3.0 0.00 0.01 0.01 27 1013.7
20260505014005 58 200 3.0 3.0 0.00 0.01 0.01 27 1013.7
20260505013005 58 207 2.0 3.0 0.00 0.01 0.01 28 1013.7
20260505012505 59 207 2.0 5.0 0.00 0.01 0.01 28 1013.7
20260505012005 59 216 3.0 5.0 0.00 0.01 0.01 27 1013.6
20260505011505 59 240 3.0 6.0 0.00 0.01 0.01 28 1013.6
20260505011006 60 240 2.0 6.0 0.00 0.01 0.01 28 1013.6
20260505010505 60 230 4.0 7.0 0.00 0.01 0.01 26 1013.7
20260505010005 60 232 5.0 9.0 0.00 0.01 0.01 26 1013.6
20260505005505 60 235 6.0 10.0 0.00 0.01 0.01 25 1013.6
20260505004505 60 253 6.0 12.0 0.00 0.01 0.01 26 1013.7
20260505004004 61 241 7.0 12.0 0.00 0.01 0.01 26 1013.8
20260505003505 61 245 6.0 12.0 0.00 0.01 0.01 24 1013.8
20260505003005 61 235 5.0 12.0 0.00 0.01 0.01 27 1013.9
20260505002504 61 259 7.0 12.0 0.00 0.01 0.01 26 1013.8
20260505002005 61 244 6.0 13.0 0.00 0.01 0.01 27 1013.8
20260505001505 61 246 7.0 15.0 0.00 0.01 0.01 24 1013.9
20260505001004 61 238 10.0 15.0 0.00 0.01 0.01 24 1014.4
20260505000005 62 247 11.0 14.0 0.00 0.01 0.01 25 1014.4
20260504235505 62 255 7.0 16.0 0.00 0.01 0.01 25 1014.4
20260504234505 62 237 10.0 17.0 0.00 0.01 0.01 24 1014.4
20260504234005 63 216 10.0 17.0 0.00 0.01 0.01 23 1014.4
20260504233005 63 200 9.0 18.0 0.00 0.01 0.01 24 1014.5
20260504232505 64 235 12.0 18.0 0.00 0.01 0.01 23 1014.5
20260504231505 64 222 12.0 17.0 0.00 0.01 0.01 26 1014.5
20260504231005 64 221 13.0 18.0 0.00 0.01 0.01 26 1014.3
20260504230505 64 201 13.0 18.0 0.00 0.01 0.01 25 1014.3
20260504230005 63 196 12.0 17.0 0.00 0.01 0.01 26 1014.3
20260504225505 63 210 12.0 17.0 0.00 0.01 0.01 26 1014.3
20260504225005 63 203 10.0 17.0 0.00 0.01 0.01 28 1014.3
20260504224505 63 244 11.0 15.0 0.00 0.01 0.01 28 1014.3
20260504224005 63 225 10.0 15.0 0.00 0.01 0.01 27 1014.4
20260504222505 62 216 8.0 15.0 0.00 0.01 0.01 30 1014.8
20260504222005 62 232 9.0 18.0 0.00 0.01 0.01 29 1014.8
20260504221505 63 243 14.0 18.0 0.00 0.01 0.01 28 1014.8
20260504221005 63 183 10.0 14.0 0.00 0.01 0.01 27 1014.8
20260504220505 63 241 7.0 20.0 0.00 0.01 0.01 29 1014.8
20260504220004 64 240 11.0 20.0 0.00 0.01 0.01 27 1014.8
20260504215505 63 199 8.0 16.0 0.00 0.01 0.01 28 1014.9
20260504215005 63 197 9.0 18.0 0.00 0.01 0.01 29 1014.9
20260504214505 64 231 12.0 18.0 0.00 0.01 0.01 28 1014.9
20260504214005 64 188 11.0 17.0 0.00 0.01 0.01 29 1014.9
20260504213505 65 202 12.0 20.0 0.00 0.01 0.01 28 1015.4
20260504213005 64 215 14.0 20.0 0.00 0.01 0.01 28 1015.5
20260504212505 64 210 15.0 20.0 0.00 0.01 0.01 28 1015.5
20260504212005 63 227 12.0 15.0 0.00 0.01 0.01 31 1015.5
20260504211505 62 202 8.0 15.0 0.00 0.01 0.01 29 1015.5
20260504211005 62 184 9.0 18.0 0.00 0.01 0.01 30 1015.5
20260504210505 62 208 10.0 18.0 0.00 0.01 0.01 29 1015.8
20260504210005 63 222 12.0 17.0 0.00 0.01 0.01 31 1015.8
20260504205505 63 233 9.0 15.0 0.00 0.01 0.01 31 1015.9
20260504205005 63 242 9.0 18.0 0.00 0.01 0.01 32 1016.1
20260504204005 63 216 15.0 20.0 0.00 0.01 0.01 31 1016.1
20260504203505 62 188 13.0 18.0 0.00 0.01 0.01 31 1016.1
20260504203005 62 203 10.0 17.0 0.00 0.01 0.01 34 1016.1
20260504202504 61 242 9.0 17.0 0.00 0.01 0.01 34 1016.2
20260504202004 61 236 12.0 17.0 0.00 0.01 0.01 33 1016.4
20260504201505 61 211 7.0 15.0 0.00 0.01 0.01 36 1016.7
20260504201004 61 189 10.0 15.0 0.00 0.01 0.01 36 1016.7
20260504200505 61 232 8.0 17.0 0.00 0.01 0.01 37 1016.7
20260504200004 61 182 12.0 17.0 0.00 0.01 0.01 36 1016.4
20260504195504 60 195 7.0 14.0 0.00 0.01 0.01 39 1016.4
20260504195004 60 223 8.0 14.0 0.00 0.01 0.01 38 1016.6
20260504194505 60 237 9.0 18.0 0.00 0.01 0.01 37 1016.5
20260504194005 60 206 9.0 18.0 0.00 0.01 0.01 38 1016.5
20260504193504 60 179 14.0 18.0 0.00 0.01 0.01 39 1016.5
20260504193005 60 184 7.0 16.0 0.00 0.01 0.01 39 1016.6
20260504192504 60 226 10.0 20.0 0.00 0.01 0.01 40 1016.6
20260504192005 60 182 14.0 20.0 0.00 0.01 0.01 40 1016.6
20260504191504 60 167 9.0 15.0 0.00 0.01 0.01 40 1016.8
20260504191004 60 197 6.0 15.0 0.00 0.01 0.01 39 1016.8
20260504190505 60 185 11.0 16.0 0.00 0.01 0.01 38 1016.8
20260504190005 60 237 9.0 16.0 0.00 0.01 0.01 39 1017.0
20260504185504 60 212 11.0 16.0 0.00 0.01 0.01 41 1017.0
20260504185005 59 209 6.0 15.0 0.00 0.01 0.01 41 1017.0
20260504184505 60 206 10.0 15.0 0.00 0.01 0.01 41 1017.1
20260504184004 60 203 10.0 20.0 0.00 0.01 0.01 41 1017.3
20260504183005 59 241 9.0 14.0 0.00 0.01 0.01 45 1017.4
20260504182504 59 231 9.0 14.0 0.00 0.01 0.01 45 1017.4
20260504182005 59 236 8.0 13.0 0.00 0.01 0.01 45 1017.4
20260504181505 59 255 9.0 15.0 0.00 0.01 0.01 45 1017.4
20260504181005 60 218 9.0 16.0 0.00 0.01 0.01 43 1017.4
20260504180505 59 200 9.0 16.0 0.00 0.01 0.01 45 1017.4
20260504180004 59 221 12.0 16.0 0.00 0.01 0.01 43 1017.4
20260504175504 59 208 9.0 15.0 0.00 0.01 0.01 44 1017.4
20260504175004 59 202 9.0 15.0 0.00 0.01 0.01 44 1017.5
20260504174505 59 202 7.0 12.0 0.00 0.01 0.01 46 1017.6
20260504174004 58 189 8.0 14.0 0.00 0.01 0.01 47 1017.6
20260504173505 59 205 5.0 14.0 0.00 0.01 0.01 46 1017.6
20260504173005 59 204 8.0 13.0 0.00 0.01 0.01 46 1017.6
20260504172005 58 163 6.0 12.0 0.00 0.01 0.01 46 1017.5
20260504171005 57 194 9.0 12.0 0.00 0.01 0.01 47 1017.5
20260504151004 53 217 2.0 3.0 0.00 0.01 0.01 58 1017.9
20260504150504 53 246 1.0 2.0 0.00 0.01 0.01 59 1017.9